SCP
0 0 0 0 0 0 0 0 0 0 0 0 0 0 0 0 0 0 0 0 0 0 0 0 0 0 0 0 0 0 0 0 0 0 0 0 0 0 0 0 0 0 0
0 0 0 0 0 0 0 0 0 0 0 0 0 0 0 0 0 0 0 0 0 0 0 0 0 0 0 0 0 0 0 0 0 0 0 0 0 0 0 0 0 0 0
0 0 0 0 0 0 0 0 0 0 0 0 0 0 0 0 0 0 0 0 0 0 0 0 0 0 0 0 0 0 0 0 0 0 0 0 0 0 0 0 0 0 0
0 0 0 0 0 0 0 0 0 0 0 0 0 0 0 0 0 0 0 0 0 0 0 0 0 0 0 0 0 0 0 0 0 0 0 0 0 0 0 0 0 0 0
0 0 0 0 0 0 0 0 0 0 0 0 0 0 0 0 0 0 0 0 0 0 0 0 0 0 0 0 0 0 0 0 0 0 0 0 0 0 0 0 0 0 0
0 0 0 1 1 0 0 0 0 0 0 0 0 0 0 0 0 0 0 0 0 0 0 0 0 0 0 0 0 0 0 0 0 0 0 0 0 0 0 0 0 0 0
0 0 0 1 1 0 0 0 0 0 0 0 0 0 0 0 0 0 0 0 0 0 0 0 0 0 0 0 0 0 0 0 0 0 0 0 0 0 0 0 0 0 0
0 0 0 0 0 0 0 0 0 0 0 0 0 0 0 0 0 0 0 0 0 0 0 0 0 0 0 0 0 0 0 0 0 0 0 0 0 0 0 0 0 0 0
0 0 0 0 0 0 0 0 0 0 0 0 0 0 0 0 0 0 0 0 0 0 0 0 0 0 0 0 0 0 0 0 0 0 0 0 0 0 0 0 0 0 0
0 0 0 0 0 0 0 0 0 0 0 0 0 0 0 0 0 0 0 0 0 0 0 0 0 0 0 0 0 0 0 0 0 0 0 0 0 0 0 0 0 0 0
0 0 0 0 0 0 0 0 0 0 0 0 0 0 0 0 0 0 0 0 0 0 0 0 0 0 0 0 0 0 0 0 0 0 0 0 0 0 0 0 0 0 0
0 0 0 0 0 0 0 0 0 0 0 0 0 0 0 0 0 0 0 0 0 0 0 0 0 0 0 0 0 0 0 0 0 0 0 0 0 0 0 0 0 0 0
0 0 0 0 0 0 0 0 0 0 0 0 0 0 0 0 0 0 0 0 0 0 0 0 0 0 0 0 0 0 0 0 0 0 0 0 0 0 0 0 0 0 0
0 0 0 0 0 0 0 0 0 0 0 0 0 0 0 0 0 0 0 0 0 0 0 0 0 0 0 0 0 0 0 0 0 0 0 0 0 0 0 0 0 0 0
0 0 0 0 0 0 0 0 0 0 0 0 0 0 0 0 0 0 0 0 0 0 0 0 0 0 0 0 0 0 0 0 0 0 0 0 0 0 0 0 0 0 0
0 0 0 0 0 0 0 0 0 0 0 0 0 0 0 0 0 0 0 0 0 0 0 0 0 0 0 0 0 0 0 0 0 0 0 0 0 0 0 0 0 0 0
0 0 0 0 0 0 0 0 0 0 0 0 0 0 0 0 0 0 0 0 0 0 0 0 0 0 0 0 0 0 0 0 0 0 0 0 0 0 0 0 0 0 0
0 0 0 0 0 0 0 0 0 0 0 0 0 0 0 0 0 0 0 0 0 0 0 0 0 0 0 0 0 0 0 0 0 0 0 0 0 0 0 0 0 0 0
0 0 0 0 0 0 0 0 0 0 0 0 0 0 0 0 0 0 0 0 0 0 0 0 0 0 0 0 0 0 0 0 0 0 0 0 0 0 0 0 0 0 0
0 0 0 0 0 0 0 0 0 0 0 0 0 0 0 0 0 0 0 0 0 0 0 0 0 0 0 0 0 0 0 0 0 0 0 0 0 0 0 0 0 0 0
0 0 0 0 0 0 0 0 0 0 0 0 0 0 0 0 0 0 0 0 0 0 0 0 0 0 0 0 0 0 0 0 0 0 0 0 0 0 0 0 0 0 0
0 0 0 0 0 0 0 0 0 0 0 0 0 0 0 0 0 0 0 0 0 0 0 0 0 0 0 0 0 0 0 0 0 0 0 0 0 0 0 0 0 0 0
0 0 0 0 0 0 0 0 0 0 0 0 0 0 0 0 0 0 0 0 0 0 0 0 0 0 0 0 0 0 0 0 0 0 0 0 0 0 0 0 0 0 0
0 0 0 0 0 0 0 0 0 0 0 0 0 0 0 0 0 0 0 0 0 0 0 0 0 0 0 0 0 0 0 0 0 0 0 0 0 0 0 0 0 0 0
0 0 1 0 0 0 0 0 0 0 0 0 0 0 0 0 0 0 0 0 0 0 0 0 0 0 0 0 0 0 0 0 0 0 0 0 0 0 0 0 0 0 0
0 1 2 1 0 0 0 0 0 0 0 0 0 0 0 0 0 0 0 0 0 0 0 0 0 0 0 0 0 0 0 0 0 0 0 0 0 0 0 0 0 0 0
Wind_Speed
2 2 3 5 7 8 8 8 8 9 9 9 9 9 9 9 9 8 8 8 7 7 7 8 8 8 8 8 8 8 8 8 8 7 8 8 8 8 8 9 8 5 9
2 2 4 6 7 8 8 8 8 8 8 8 8 8 8 8 8 8 7 7 7 6 6 7 8 8 8 8 8 8 8 8 8 7 7 6 7 7 8 8 8 5 8
3 2 4 7 7 8 8 8 8 8 8 7 7 7 7 7 7 7 7 6 6 6 6 6 7 7 7 8 8 7 7 7 8 7 6 2 3 6 7 7 8 7 7
4 3 4 7 7 7 8 8 8 7 7 7 6 6 6 6 6 6 6 6 5 5 5 5 6 6 7 7 7 7 7 7 7 6 3 2 1 5 7 7 7 7 7
3 3 4 7 7 7 7 7 7 7 6 6 6 6 5 5 5 6 5 5 5 5 4 5 5 5 6 6 6 6 7 7 6 5 2 1 1 4 6 7 7 7 7
3 3 4 8 8 8 7 7 6 6 6 6 5 5 5 4 4 5 5 5 4 4 4 4 4 4 5 5 6 6 6 6 5 3 2 1 1 4 5 6 6 7 7
3 3 4 7 8 8 7 7 7 6 6 5 5 5 4 4 4 4 4 4 4 4 3 3 3 4 4 5 5 6 6 5 4 2 2 2 2 5 5 5 5 6 6
4 3 3 6 7 7 7 7 7 6 5 5 5 5 5 4 4 4 4 3 3 3 3 3 3 3 3 4 4 5 5 5 3 2 2 2 4 5 5 6 6 5 5
3 3 2 2 3 6 7 7 7 6 6 5 5 5 4 4 3 3 3 3 3 2 2 2 2 2 2 3 3 4 5 5 3 2 2 2 5 6 6 6 6 6 6
2 2 2 2 2 2 2 5 6 6 6 6 5 5 4 4 3 3 2 2 2 2 1 1 2 2 1 1 2 3 4 4 3 3 2 3 7 7 7 7 7 7 7
1 0 1 1 1 1 2 3 4 4 5 5 4 5 4 1 1 1 2 2 2 1 1 0 1 1 1 0 1 2 3 1 3 2 3 6 8 8 8 8 8 7 7
2 2 1 1 1 1 1 1 1 1 2 2 2 2 1 1 1 1 1 1 1 1 1 1 0 0 1 0 1 1 1 2 2 3 4 8 9 10 10 9 9 9 9
3 2 2 2 2 2 1 1 1 1 1 1 1 1 1 1 1 1 0 0 0 0 0 1 0 0 0 0 0 1 1 1 2 2 4 9 10 11 11 10 10 10 10
3 3 3 2 2 2 2 1 1 1 0 0 0 0 1 0 0 0 0 1 1 1 1 1 1 0 1 1 2 2 2 2 2 2 4 9 10 12 12 11 11 11 11
4 4 3 3 3 3 2 1 1 1 1 1 1 1 1 1 0 1 1 1 1 1 1 1 1 1 1 1 2 2 3 3 3 3 3 8 10 12 13 13 12 12 13
5 4 3 3 3 3 2 2 2 2 2 1 1 2 1 1 1 1 1 2 2 2 2 2 3 2 2 2 2 3 4 4 4 4 4 5 9 11 13 14 14 13 13
5 4 4 3 3 4 3 3 2 2 2 2 2 2 2 2 2 1 1 2 2 2 2 2 2 2 2 2 3 4 4 4 4 5 5 4 5 9 12 14 14 14 14
4 4 4 3 3 4 3 3 2 2 2 2 2 2 3 3 3 2 2 2 3 2 2 2 2 2 2 3 3 3 3 4 5 5 5 5 4 5 8 12 14 15 15
5 4 4 3 4 4 3 3 2 2 2 2 2 3 3 4 3 3 2 3 2 2 2 3 3 3 3 3 3 3 3 4 5 5 6 6 6 5 5 8 12 13 14
4 4 4 3 4 3 2 1 1 2 2 2 3 3 4 4 4 3 3 3 3 2 3 3 4 3 3 3 4 4 4 5 4 5 6 5 5 6 5 5 6 7 12
3 3 4 3 3 3 2 2 1 2 2 2 3 4 4 4 4 4 3 3 3 3 4 4 4 4 3 2 1 3 4 4 5 5 4 4 5 5 5 5 5 4 5
5 5 4 4 4 4 3 3 3 2 2 3 3 4 5 5 5 4 4 4 4 4 5 5 4 3 3 3 2 1 2 3 3 4 4 4 5 4 5 6 5 5 4
5 6 5 5 5 4 3 1 1 1 1 2 3 3 4 5 5 6 6 5 5 5 5 6 5 6 4 4 4 3 2 4 3 3 5 5 5 4 5 4 5 5 5
6 5 5 5 5 4 3 3 3 3 4 5 4 4 4 5 5 6 6 6 6 5 6 7 6 5 5 5 4 4 4 3 3 3 3 3 4 5 6 5 5 5 6
4 4 4 4 4 4 4 4 4 4 4 3 3 4 5 4 5 6 6 6 6 6 7 7 6 6 6 6 5 4 3 4 4 4 6 4 4 4 5 5 5 5 5
2 3 3 4 4 4 4 4 4 5 4 4 5 5 5 4 4 6 6 6 7 6 7 7 7 7 7 7 6 5 5 4 4 4 6 6 6 5 4 4 5 5 4
Wind_Direction
233 225 156 117 118 115 111 111 108 105 102 100 102 106 109 114 119 121 123 126 129 132 135 134 132 130 128 126 123 123 125 126 128 128 128 127 125 124 122 118 115 105 112
176 186 139 118 115 117 114 109 106 105 103 102 103 104 108 111 114 118 120 125 132 135 138 139 134 132 130 127 125 127 130 127 122 120 123 129 131 134 134 129 130 127 122
136 149 137 118 113 112 111 107 103 103 104 104 106 106 106 109 114 117 120 126 128 129 133 136 135 134 131 128 128 130 135 133 128 124 120 108 137 149 148 143 141 139 134
129 127 126 113 110 109 106 103 102 99 100 101 103 107 110 113 116 120 122 122 120 121 125 129 132 137 137 137 136 137 137 132 134 133 115 107 131 162 161 156 153 150 143
104 107 123 114 109 106 106 104 102 100 97 96 96 97 106 116 120 120 120 119 116 114 122 125 131 138 143 143 142 144 142 136 136 131 120 127 142 170 170 167 162 156 152
97 92 112 110 108 102 99 100 97 96 96 95 94 90 91 102 113 117 114 111 109 107 111 122 132 142 150 152 152 150 145 141 127 120 132 153 188 186 175 169 168 167 165
99 81 102 102 103 102 100 96 94 95 93 91 93 92 88 86 90 93 103 111 112 110 109 114 131 140 151 159 163 160 153 144 123 129 155 184 202 194 188 177 174 182 182
110 83 81 93 97 95 93 92 90 89 91 87 83 84 84 84 82 80 84 98 109 114 116 117 117 135 153 161 175 171 158 141 148 160 180 202 204 207 207 198 195 196 196
96 89 73 76 86 88 88 87 84 79 80 82 81 75 72 69 75 83 77 81 90 104 113 124 133 130 153 170 173 173 161 156 149 179 198 208 218 222 219 212 208 210 210
73 82 87 75 83 90 87 82 80 74 68 64 64 64 64 64 67 69 74 69 74 73 86 133 130 129 142 169 175 162 166 165 178 192 206 222 225 228 230 225 221 222 220
105 92 123 113 100 99 103 86 79 72 64 62 53 53 58 55 81 78 52 60 62 51 32 47 151 113 93 177 188 176 156 177 190 207 212 232 229 231 232 232 233 233 229
213 220 195 172 157 134 113 96 84 75 69 65 59 49 48 50 32 45 39 46 59 50 360 327 295 132 63 9 223 168 171 193 202 219 227 237 236 236 236 235 235 236 237
212 225 218 199 184 162 148 135 114 83 70 62 60 55 51 45 21 21 60 325 231 43 224 289 282 14 136 178 225 216 210 201 220 236 240 243 244 243 243 240 238 238 240
213 225 233 205 187 179 164 160 157 141 127 132 209 81 86 55 1 306 244 241 208 205 206 213 220 242 234 219 215 220 225 222 231 236 246 252 251 249 250 248 245 242 243
216 225 225 219 196 184 166 173 162 179 190 214 218 219 179 173 247 263 247 240 228 213 206 212 220 221 232 243 239 240 238 237 243 245 251 256 257 255 254 253 251 248 247
217 219 216 217 208 186 179 182 194 200 201 210 223 232 213 200 219 251 258 250 241 225 218 213 218 224 230 233 248 243 239 237 243 248 249 256 259 261 259 258 256 253 251
214 216 214 215 214 198 193 198 200 209 202 208 223 229 225 218 218 225 248 252 247 237 227 224 224 221 237 243 251 251 244 239 242 246 249 246 252 261 263 261 260 259 257
204 211 218 216 211 205 201 205 211 214 212 218 221 224 230 227 220 220 231 250 251 241 227 222 222 228 243 240 249 254 251 246 246 244 245 244 242 250 258 262 263 262 263
198 204 211 214 214 207 205 209 216 219 224 226 226 227 231 229 223 219 231 243 247 241 233 235 227 221 240 249 250 252 250 246 246 248 245 244 240 242 244 258 262 264 267
198 202 209 219 221 202 193 204 231 240 240 232 228 234 233 232 228 222 231 238 240 240 241 235 234 229 230 241 265 268 259 253 245 240 242 245 243 243 241 249 252 260 265
199 203 207 214 224 189 180 190 211 240 245 243 236 234 232 233 232 226 237 235 229 231 235 235 235 231 231 220 261 285 276 254 246 240 239 238 240 240 238 244 245 247 258
205 210 206 219 224 205 198 198 203 223 241 242 242 242 234 233 232 234 227 232 231 234 237 235 227 227 232 205 198 268 291 291 255 241 239 237 239 236 240 243 244 246 247
211 212 214 222 224 215 202 191 229 266 279 265 257 250 242 236 234 233 232 231 230 226 234 234 224 220 230 223 203 196 218 248 285 249 235 239 237 240 242 240 241 245 249
221 219 218 227 225 215 196 196 211 231 247 253 256 257 259 244 241 238 236 235 235 232 233 234 230 223 218 226 221 221 227 223 245 279 262 242 244 246 240 244 243 243 246
224 221 224 229 228 217 210 204 214 238 249 263 266 268 267 257 246 243 238 236 237 236 236 236 232 226 222 224 221 218 233 243 237 248 273 272 258 244 240 237 238 240 242
243 228 227 224 228 220 219 214 214 233 250 265 269 270 272 267 256 247 241 236 238 238 236 236 232 229 229 228 228 220 218 222 227 231 255 267 270 266 253 242 237 235 235